Location: Unspecified
(52.4361°N, 0.0000°E)
Time: 13:43:18
(UTC+00:00)

Envisat - Visible Passes

Search period start: 23 October 2019 00:00
Search period end: 02 November 2019 00:00
Orbit: 764 x 766 km, 98.1° (Epoch: 23 October)

Date Brightness Start Highest point End Pass type
(mag) Time Alt. Az. Time Alt. Az. Time Alt. Az.
23 Oct 5.7 06:02:20 10° NE 06:06:30 25° E 06:10:37 10° SE visible
23 Oct 3.1 17:22:18 10° SE 17:27:17 56° ENE 17:32:16 10° N visible
23 Oct 5.2 19:02:26 10° SSW 19:06:38 26° W 19:10:51 10° NW visible
24 Oct 6.3 05:26:59 10° ENE 05:29:13 13° E 05:31:26 10° ESE visible
24 Oct 4.0 18:24:40 10° S 18:29:35 49° W 18:34:32 10° NNW visible
25 Oct 3.0 17:47:38 10° SSE 17:52:43 87° ENE 17:57:51 10° NNW visible
25 Oct 5.9 19:29:20 10° SW 19:32:28 16° W 19:35:37 10° NW visible
26 Oct 6.0 05:51:20 10° NE 05:55:06 20° E 05:58:51 10° SE visible
26 Oct 3.3 17:11:12 10° SE 17:16:03 47° ENE 17:20:55 10° N visible
26 Oct 4.9 18:50:47 10° SSW 18:55:16 31° W 18:59:46 10° NNW visible
27 Oct 6.7 05:17:16 10° ENE 05:17:46 10° E 05:18:15 10° E visible
27 Oct 3.6 18:13:15 10° S 18:18:16 59° W 18:23:19 10° NNW visible
28 Oct 2.9 17:36:24 10° SSE 17:41:28 73° ENE 17:46:33 10° NNW visible
28 Oct 5.6 19:17:23 10° SW 19:21:03 20° W 19:24:44 10° NW visible
29 Oct 6.1 05:40:25 10° NE 05:43:41 17° E 05:46:57 10° SE visible
29 Oct 4.5 18:39:13 10° SSW 18:43:54 37° W 18:48:38 10° NNW visible
30 Oct 3.3 18:01:54 10° S 18:06:58 72° WSW 18:12:05 10° NNW visible
30 Oct 6.1 19:44:56 10° WSW 19:46:56 12° W 19:48:57 10° WNW visible
31 Oct 5.5 06:05:13 10° NE 06:09:30 27° E 06:13:46 10° SSE visible
31 Oct 3.0 17:25:14 10° SSE 17:30:13 61° ENE 17:35:15 10° N visible
31 Oct 5.3 19:05:35 10° SW 19:09:39 24° W 19:13:44 10° NW visible
01 Nov 6.2 05:29:40 10° NE 05:32:15 14° E 05:34:50 10° ESE visible
01 Nov 4.1 18:27:42 10° S 18:32:35 45° W 18:37:28 10° NNW visible
